| time (UTC) | temp F | wind direction | speed knots | gust knots | rain 1hr in | rain 24hr in | rain mn in | humidity % | barometer mb |
| 20260505184551 | 75 | 347 | 2.6 | 3.5 | 0.00 | 0.00 | 0.00 | 51 | 1003.0 |
| 20260505183341 | 75 | 282 | 3.5 | 5.2 | 0.00 | 0.00 | 0.00 | 51 | 1003.0 |
| 20260505181514 | 75 | 279 | 4.3 | 7.0 | 0.00 | 0.00 | 0.00 | 52 | 1003.0 |
| 20260505180926 | 75 | 293 | 4.3 | 5.2 | 0.00 | 0.00 | 0.00 | 50 | 1003.3 |
| 20260505180313 | 74 | 305 | 2.6 | 2.6 | 0.00 | 0.00 | 0.00 | 51 | 1003.0 |
| 20260505175713 | 74 | 11 | 3.5 | 7.0 | 0.00 | 0.00 | 0.00 | 50 | 1003.3 |
| 20260505175125 | 74 | 354 | 3.5 | 5.2 | 0.00 | 0.00 | 0.00 | 51 | 1003.3 |
| 20260505174525 | 74 | 353 | 4.3 | 5.2 | 0.00 | 0.00 | 0.00 | 51 | 1003.3 |
| 20260505173933 | 75 | 343 | 3.5 | 3.5 | 0.00 | 0.00 | 0.00 | 52 | 1003.0 |
| 20260505173350 | 75 | 344 | 5.2 | 7.8 | 0.00 | 0.00 | 0.00 | 50 | 1003.0 |
| 20260505172720 | 74 | 42 | 4.3 | 5.2 | 0.00 | 0.00 | 0.00 | 52 | 1003.3 |
| 20260505172131 | 75 | 27 | 4.3 | 7.0 | 0.00 | 0.00 | 0.00 | 52 | 1003.0 |
| 20260505171517 | 75 | 336 | 3.5 | 5.2 | 0.00 | 0.00 | 0.00 | 52 | 1003.3 |
| 20260505170939 | 75 | 354 | 4.3 | 5.2 | 0.00 | 0.00 | 0.00 | 51 | 1003.3 |
| 20260505170328 | 75 | 339 | 3.5 | 5.2 | 0.00 | 0.00 | 0.00 | 52 | 1003.3 |
| 20260505165708 | 75 | 357 | 5.2 | 7.0 | 0.00 | 0.00 | 0.00 | 53 | 1003.0 |
| 20260505165110 | 76 | 301 | 5.2 | 7.8 | 0.00 | 0.00 | 0.00 | 52 | 1003.3 |
| 20260505164512 | 75 | 335 | 5.2 | 7.8 | 0.00 | 0.00 | 0.00 | 52 | 1003.3 |
| 20260505163952 | 75 | 359 | 2.6 | 3.5 | 0.00 | 0.00 | 0.00 | 51 | 1003.0 |
| 20260505163316 | 75 | 322 | 8.7 | 12.2 | 0.00 | 0.00 | 0.00 | 52 | 1003.0 |
| 20260505162718 | 75 | 290 | 4.3 | 6.1 | 0.00 | 0.00 | 0.00 | 52 | 1003.3 |
| 20260505162148 | 75 | 263 | 3.5 | 5.2 | 0.00 | 0.00 | 0.00 | 52 | 1003.3 |
| 20260505161535 | 76 | 287 | 4.3 | 7.0 | 0.00 | 0.00 | 0.00 | 52 | 1003.3 |
| 20260505160921 | 75 | 2 | 3.5 | 3.5 | 0.00 | 0.00 | 0.00 | 54 | 1003.3 |
| 20260505160344 | 74 | 333 | 3.5 | 3.5 | 0.00 | 0.00 | 0.00 | 53 | 1003.3 |
| 20260505153319 | 74 | 354 | 4.3 | 5.2 | 0.00 | 0.00 | 0.00 | 54 | 1003.3 |
| 20260505152748 | 74 | 316 | 2.6 | 3.5 | 0.00 | 0.00 | 0.00 | 57 | 1003.3 |
| 20260505152114 | 74 | 359 | 4.3 | 6.1 | 0.00 | 0.00 | 0.00 | 53 | 1003.3 |
| 20260505151546 | 73 | 348 | 4.3 | 5.2 | 0.00 | 0.00 | 0.00 | 54 | 1003.7 |
| 20260505150942 | 73 | 24 | 3.5 | 3.5 | 0.00 | 0.00 | 0.00 | 55 | 1003.3 |
| 20260505150331 | 73 | 15 | 3.5 | 5.2 | 0.00 | 0.00 | 0.00 | 55 | 1003.3 |
| 20260505140322 | 71 | 266 | 3.5 | 3.5 | 0.00 | 0.00 | 0.00 | 57 | 1003.3 |
| 20260505124537 | 64 | 269 | 0.0 | 0.0 | 0.00 | 0.00 | 0.00 | 72 | 1003.7 |
| 20260505123916 | 64 | 217 | 0.0 | 0.0 | 0.00 | 0.00 | 0.00 | 75 | 1003.7 |
| 20260505123326 | 64 | 265 | 0.0 | 0.0 | 0.00 | 0.00 | 0.00 | 76 | 1004.0 |
| 20260505122715 | 64 | 300 | 0.0 | 0.0 | 0.00 | 0.00 | 0.00 | 70 | 1003.7 |
| 20260505122122 | 64 | 291 | 0.0 | 0.0 | 0.00 | 0.00 | 0.00 | 75 | 1003.7 |
| 20260505120935 | 63 | 294 | 0.0 | 0.9 | 0.00 | 0.00 | 0.00 | 75 | 1003.3 |
| 20260505120316 | 63 | 4 | 0.0 | 0.9 | 0.00 | 0.00 | 0.00 | 77 | 1003.3 |
| 20260505115721 | 63 | 275 | 0.0 | 0.0 | 0.00 | 0.00 | 0.00 | 76 | 1003.3 |
| 20260505115152 | 63 | 277 | 0.0 | 0.0 | 0.00 | 0.00 | 0.00 | 75 | 1003.3 |
| 20260505114514 | 63 | 259 | 0.0 | 0.0 | 0.00 | 0.00 | 0.00 | 75 | 1003.3 |
| 20260505113925 | 62 | 277 | 0.0 | 0.0 | 0.00 | 0.00 | 0.00 | 77 | 1003.3 |
| 20260505113317 | 62 | 270 | 0.0 | 0.0 | 0.00 | 0.00 | 0.00 | 76 | 1003.0 |
| 20260505112135 | 62 | 240 | 0.0 | 0.9 | 0.00 | 0.00 | 0.00 | 76 | 1003.0 |
| 20260505111538 | 60 | 7 | 2.6 | 2.6 | 0.00 | 0.00 | 0.00 | 73 | 1003.0 |
| 20260505110926 | 60 | 261 | 0.0 | 0.0 | 0.00 | 0.00 | 0.00 | 78 | 1002.7 |
| 20260505110324 | 61 | 233 | 0.0 | 0.0 | 0.00 | 0.00 | 0.00 | 78 | 1002.7 |
| 20260505101527 | 59 | 249 | 0.0 | 0.0 | 0.00 | 0.00 | 0.00 | 80 | 1002.7 |
| 20260505100942 | 59 | 240 | 0.0 | 0.9 | 0.00 | 0.00 | 0.00 | 81 | 1002.7 |
| 20260505100313 | 59 | 258 | 0.0 | 0.0 | 0.00 | 0.00 | 0.00 | 82 | 1002.7 |
| 20260505095739 | 59 | 259 | 0.0 | 0.0 | 0.00 | 0.00 | 0.00 | 81 | 1002.3 |
| 20260505095146 | 59 | 249 | 0.0 | 0.0 | 0.00 | 0.00 | 0.00 | 80 | 1002.7 |
| 20260505094528 | 59 | 239 | 0.0 | 0.0 | 0.00 | 0.00 | 0.00 | 81 | 1002.3 |
| 20260505093910 | 59 | 275 | 0.0 | 0.0 | 0.00 | 0.00 | 0.00 | 80 | 1002.7 |
| 20260505093331 | 60 | 283 | 0.0 | 0.0 | 0.00 | 0.00 | 0.00 | 80 | 1002.0 |
| 20260505092734 | 60 | 275 | 0.0 | 0.0 | 0.00 | 0.00 | 0.00 | 79 | 1002.0 |
| 20260505092112 | 60 | 9 | 0.0 | 0.0 | 0.00 | 0.00 | 0.00 | 79 | 1002.0 |
| 20260505091543 | 60 | 262 | 0.0 | 0.9 | 0.00 | 0.00 | 0.00 | 79 | 1002.0 |
| 20260505090932 | 60 | 280 | 0.0 | 0.0 | 0.00 | 0.00 | 0.00 | 78 | 1001.6 |
| 20260505090330 | 61 | 254 | 0.0 | 0.0 | 0.00 | 0.00 | 0.00 | 78 | 1001.6 |
| 20260505085725 | 62 | 256 | 0.0 | 0.0 | 0.00 | 0.00 | 0.00 | 76 | 1001.6 |
| 20260505085123 | 60 | 247 | 0.0 | 0.0 | 0.00 | 0.00 | 0.00 | 78 | 1001.6 |
| 20260505084548 | 61 | 285 | 0.0 | 0.0 | 0.00 | 0.00 | 0.00 | 78 | 1001.6 |
| 20260505083930 | 61 | 250 | 0.0 | 0.0 | 0.00 | 0.00 | 0.00 | 78 | 1001.6 |
| 20260505082713 | 61 | 15 | 0.0 | 0.9 | 0.00 | 0.00 | 0.00 | 76 | 1001.6 |
| 20260505081509 | 63 | 310 | 0.0 | 0.0 | 0.00 | 0.00 | 0.00 | 74 | 1001.6 |
| 20260505080952 | 63 | 229 | 0.9 | 0.9 | 0.00 | 0.00 | 0.00 | 73 | 1001.6 |
| 20260505080308 | 64 | 346 | 0.0 | 0.9 | 0.00 | 0.00 | 0.00 | 73 | 1001.6 |
| 20260505075729 | 65 | 341 | 0.0 | 0.9 | 0.00 | 0.00 | 0.00 | 67 | 1001.6 |
| 20260505075111 | 62 | 336 | 0.9 | 0.9 | 0.00 | 0.00 | 0.00 | 72 | 1001.6 |
| 20260505073939 | 63 | 3 | 0.9 | 0.9 | 0.00 | 0.00 | 0.00 | 73 | 1001.3 |
| 20260505073351 | 63 | 25 | 1.7 | 2.6 | 0.00 | 0.00 | 0.00 | 70 | 1001.3 |
| 20260505072150 | 61 | 343 | 0.0 | 0.0 | 0.00 | 0.00 | 0.00 | 79 | 1001.6 |
| 20260505070926 | 62 | 352 | 0.0 | 0.0 | 0.00 | 0.00 | 0.00 | 74 | 1001.6 |
| 20260505070310 | 62 | 8 | 0.0 | 0.0 | 0.00 | 0.00 | 0.00 | 72 | 1001.6 |
| 20260505065739 | 63 | 327 | 0.0 | 0.0 | 0.00 | 0.00 | 0.00 | 72 | 1001.3 |
| 20260505064531 | 61 | 313 | 0.0 | 0.0 | 0.00 | 0.00 | 0.00 | 76 | 1001.6 |
| 20260505063912 | 62 | 288 | 0.0 | 0.0 | 0.00 | 0.00 | 0.00 | 75 | 1001.6 |
| 20260505063352 | 60 | 200 | 0.0 | 0.0 | 0.00 | 0.00 | 0.00 | 78 | 1001.3 |
| 20260505062752 | 61 | 229 | 0.0 | 0.0 | 0.00 | 0.00 | 0.00 | 76 | 1001.6 |
| 20260505062120 | 60 | 275 | 0.0 | 0.0 | 0.00 | 0.00 | 0.00 | 78 | 1001.6 |
| 20260505060932 | 59 | 338 | 0.0 | 0.0 | 0.00 | 0.00 | 0.00 | 80 | 1001.6 |
| 20260505060347 | 59 | 290 | 0.0 | 0.0 | 0.00 | 0.00 | 0.00 | 80 | 1001.6 |
| 20260505055730 | 59 | 287 | 0.0 | 0.0 | 0.00 | 0.00 | 0.00 | 80 | 1001.6 |
| 20260505055120 | 59 | 274 | 0.0 | 0.0 | 0.00 | 0.00 | 0.00 | 81 | 1001.6 |
| 20260505054545 | 59 | 298 | 0.0 | 0.0 | 0.00 | 0.00 | 0.00 | 82 | 1001.3 |
| 20260505053930 | 59 | 288 | 0.0 | 0.0 | 0.00 | 0.00 | 0.00 | 81 | 1001.6 |
| 20260505053309 | 59 | 274 | 0.0 | 0.0 | 0.00 | 0.00 | 0.00 | 82 | 1001.6 |
| 20260505051537 | 60 | 265 | 0.0 | 0.0 | 0.00 | 0.00 | 0.00 | 80 | 1001.6 |
| 20260505050326 | 60 | 284 | 0.0 | 0.0 | 0.00 | 0.00 | 0.00 | 79 | 1001.3 |
| 20260505041526 | 61 | 290 | 0.0 | 0.0 | 0.00 | 0.00 | 0.00 | 78 | 1001.0 |
| 20260505040919 | 62 | 276 | 0.0 | 0.0 | 0.00 | 0.00 | 0.00 | 78 | 1001.0 |
| 20260505035138 | 62 | 277 | 0.0 | 0.0 | 0.00 | 0.00 | 0.00 | 76 | 1001.0 |
| 20260505034556 | 62 | 248 | 0.0 | 0.0 | 0.00 | 0.00 | 0.00 | 77 | 1000.6 |
| 20260505033913 | 62 | 264 | 0.0 | 0.0 | 0.00 | 0.00 | 0.00 | 77 | 1000.6 |
| 20260505033320 | 62 | 253 | 0.0 | 0.0 | 0.00 | 0.00 | 0.00 | 77 | 1000.6 |
| 20260505032719 | 62 | 273 | 0.0 | 0.0 | 0.00 | 0.00 | 0.00 | 78 | 1000.6 |
| 20260505032128 | 62 | 260 | 0.0 | 0.0 | 0.00 | 0.00 | 0.00 | 78 | 1000.6 |
| 20260505031514 | 62 | 271 | 0.0 | 0.0 | 0.00 | 0.00 | 0.00 | 77 | 1000.6 |
| 20260505030941 | 62 | 273 | 0.0 | 0.0 | 0.00 | 0.00 | 0.00 | 78 | 1000.6 |
| 20260505030344 | 62 | 240 | 0.0 | 0.0 | 0.00 | 0.00 | 0.00 | 78 | 1000.6 |
| 20260505025743 | 62 | 231 | 0.0 | 0.0 | 0.00 | 0.00 | 0.00 | 78 | 1000.6 |
| 20260505025129 | 62 | 228 | 0.0 | 0.0 | 0.00 | 0.00 | 0.00 | 78 | 1000.6 |
| 20260505024538 | 62 | 231 | 0.0 | 0.0 | 0.00 | 0.00 | 0.00 | 79 | 1000.6 |
| 20260505022123 | 63 | 231 | 0.0 | 0.0 | 0.00 | 0.00 | 0.00 | 78 | 1000.3 |
| 20260505021511 | 63 | 230 | 0.0 | 0.0 | 0.00 | 0.00 | 0.00 | 77 | 1000.3 |
| 20260505020926 | 63 | 240 | 0.0 | 0.0 | 0.00 | 0.00 | 0.00 | 77 | 1000.3 |
| 20260505020317 | 63 | 239 | 0.0 | 0.0 | 0.00 | 0.00 | 0.00 | 78 | 1000.6 |
| 20260505015154 | 64 | 243 | 0.0 | 0.0 | 0.00 | 0.00 | 0.00 | 78 | 1000.6 |
| 20260505014530 | 64 | 274 | 0.0 | 0.0 | 0.00 | 0.00 | 0.00 | 77 | 1000.3 |
| 20260505013918 | 64 | 270 | 0.0 | 0.0 | 0.00 | 0.00 | 0.00 | 77 | 1000.3 |
| 20260505013318 | 64 | 243 | 0.0 | 0.0 | 0.00 | 0.00 | 0.00 | 76 | 1000.3 |
| 20260505012711 | 65 | 323 | 0.0 | 0.0 | 0.00 | 0.00 | 0.00 | 75 | 1000.3 |
| 20260505012147 | 65 | 237 | 0.0 | 0.0 | 0.00 | 0.00 | 0.00 | 75 | 1000.3 |
| 20260505011536 | 65 | 282 | 0.0 | 0.0 | 0.00 | 0.00 | 0.00 | 76 | 1000.0 |
| 20260505010914 | 65 | 295 | 0.0 | 0.0 | 0.00 | 0.00 | 0.00 | 75 | 1000.6 |
| 20260505010331 | 65 | 254 | 0.0 | 0.0 | 0.00 | 0.00 | 0.00 | 75 | 1000.3 |
| 20260505005751 | 65 | 275 | 0.0 | 0.0 | 0.00 | 0.00 | 0.00 | 75 | 1000.3 |
| 20260505005121 | 65 | 259 | 0.0 | 0.0 | 0.00 | 0.00 | 0.00 | 74 | 1000.3 |
| 20260505004534 | 66 | 242 | 0.0 | 0.0 | 0.00 | 0.00 | 0.00 | 74 | 1000.3 |
| 20260505003929 | 66 | 261 | 0.0 | 0.0 | 0.00 | 0.00 | 0.00 | 74 | 1000.3 |
| 20260505003354 | 67 | 237 | 0.0 | 0.0 | 0.00 | 0.00 | 0.00 | 72 | 1000.3 |
| 20260505002111 | 68 | 263 | 0.0 | 0.0 | 0.00 | 0.00 | 0.00 | 72 | 1000.3 |
| 20260505001513 | 68 | 272 | 0.0 | 0.0 | 0.00 | 0.00 | 0.00 | 70 | 1000.3 |
| 20260505000916 | 69 | 252 | 0.0 | 0.0 | 0.00 | 0.00 | 0.00 | 69 | 1000.3 |
| 20260505000318 | 70 | 262 | 0.0 | 0.0 | 0.00 | 0.00 | 0.00 | 69 | 1000.6 |
| 20260504235715 | 70 | 266 | 0.0 | 0.0 | 0.00 | 0.00 | 0.00 | 68 | 1000.6 |
| 20260504234528 | 72 | 274 | 0.0 | 0.0 | 0.00 | 0.00 | 0.00 | 65 | 1000.6 |
| 20260504233933 | 73 | 282 | 0.0 | 0.0 | 0.00 | 0.00 | 0.00 | 63 | 1000.6 |
| 20260504233341 | 74 | 185 | 0.0 | 0.0 | 0.00 | 0.00 | 0.00 | 63 | 1000.3 |
| 20260504232715 | 75 | 273 | 0.0 | 0.9 | 0.00 | 0.00 | 0.00 | 56 | 1000.3 |
| 20260504232153 | 78 | 257 | 0.9 | 0.9 | 0.00 | 0.00 | 0.00 | 53 | 1000.3 |
| 20260504231519 | 79 | 349 | 1.7 | 2.6 | 0.00 | 0.00 | 0.00 | 51 | 1000.3 |
| 20260504230952 | 81 | 215 | 0.0 | 0.9 | 0.00 | 0.00 | 0.00 | 51 | 1000.6 |
| 20260504225715 | 79 | 325 | 0.9 | 1.7 | 0.00 | 0.00 | 0.00 | 50 | 1000.6 |
| 20260504225147 | 79 | 307 | 0.9 | 0.9 | 0.00 | 0.00 | 0.00 | 51 | 1000.6 |
| 20260504224511 | 77 | 297 | 0.9 | 1.7 | 0.00 | 0.00 | 0.00 | 52 | 1000.6 |
| 20260504223935 | 77 | 23 | 0.9 | 1.7 | 0.00 | 0.00 | 0.00 | 53 | 1000.6 |
| 20260504223316 | 78 | 290 | 1.7 | 1.7 | 0.00 | 0.00 | 0.00 | 51 | 1000.6 |
| 20260504222753 | 77 | 336 | 0.9 | 0.9 | 0.00 | 0.00 | 0.00 | 55 | 1000.6 |
| 20260504222112 | 77 | 321 | 0.0 | 0.9 | 0.00 | 0.00 | 0.00 | 56 | 1000.6 |
| 20260504221522 | 77 | 5 | 0.9 | 0.9 | 0.00 | 0.00 | 0.00 | 52 | 1001.0 |
| 20260504220927 | 78 | 25 | 1.7 | 2.6 | 0.00 | 0.00 | 0.00 | 52 | 1001.0 |
| 20260504220316 | 77 | 330 | 5.2 | 7.0 | 0.00 | 0.00 | 0.00 | 52 | 1001.0 |
| 20260504215123 | 76 | 341 | 3.5 | 3.5 | 0.00 | 0.00 | 0.00 | 55 | 1001.3 |
| 20260504214552 | 76 | 16 | 3.5 | 3.5 | 0.00 | 0.00 | 0.00 | 53 | 1001.3 |
| 20260504213951 | 77 | 334 | 2.6 | 3.5 | 0.00 | 0.00 | 0.00 | 52 | 1001.0 |
| 20260504211528 | 77 | 28 | 2.6 | 3.5 | 0.00 | 0.00 | 0.00 | 51 | 1001.3 |
| 20260504210950 | 77 | 318 | 4.3 | 6.1 | 0.00 | 0.00 | 0.00 | 50 | 1001.3 |
| 20260504210330 | 77 | 345 | 1.7 | 2.6 | 0.00 | 0.00 | 0.00 | 51 | 1001.3 |
| 20260504205734 | 76 | 293 | 3.5 | 3.5 | 0.00 | 0.00 | 0.00 | 51 | 1001.3 |
| 20260504205140 | 76 | 42 | 2.6 | 3.5 | 0.00 | 0.00 | 0.00 | 52 | 1001.3 |
| 20260504204542 | 76 | 342 | 2.6 | 2.6 | 0.00 | 0.00 | 0.00 | 54 | 1001.6 |
| 20260504203932 | 74 | 306 | 4.3 | 5.2 | 0.00 | 0.00 | 0.00 | 55 | 1001.3 |
| 20260504202734 | 72 | 2 | 2.6 | 2.6 | 0.00 | 0.00 | 0.00 | 60 | 1001.6 |
| 20260504202114 | 71 | 306 | 2.6 | 2.6 | 0.00 | 0.00 | 0.00 | 60 | 1001.3 |
| 20260504201541 | 71 | 291 | 0.9 | 0.9 | 0.00 | 0.00 | 0.00 | 63 | 1001.3 |
| 20260504200320 | 69 | 257 | 0.9 | 0.9 | 0.00 | 0.00 | 0.00 | 68 | 1001.6 |
| 20260504195752 | 68 | 319 | 0.9 | 1.7 | 0.00 | 0.00 | 0.00 | 63 | 1001.6 |
| 20260504195125 | 68 | 20 | 0.9 | 0.9 | 0.00 | 0.00 | 0.00 | 64 | 1002.0 |
| 20260504194552 | 68 | 9 | 1.7 | 1.7 | 0.00 | 0.00 | 0.00 | 64 | 1001.6 |
| 20260504193936 | 70 | 355 | 1.7 | 1.7 | 0.00 | 0.00 | 0.00 | 60 | 1001.6 |
| 20260504193338 | 70 | 340 | 2.6 | 2.6 | 0.00 | 0.00 | 0.00 | 59 | 1002.3 |
| 20260504192722 | 72 | 344 | 1.7 | 2.6 | 0.00 | 0.00 | 0.00 | 58 | 1002.3 |
| 20260504192139 | 72 | 311 | 3.5 | 6.1 | 0.00 | 0.00 | 0.00 | 56 | 1002.3 |
| 20260504191533 | 72 | 335 | 1.7 | 1.7 | 0.00 | 0.00 | 0.00 | 56 | 1002.0 |
| 20260504190949 | 72 | 260 | 3.5 | 5.2 | 0.00 | 0.00 | 0.00 | 57 | 1002.0 |
| 20260504185733 | 72 | 17 | 2.6 | 5.2 | 0.00 | 0.00 | 0.00 | 55 | 1002.0 |